Showing default

GORIZONT 10, 15144

Orbit data source: Space-Track

GORIZONT 10, 15144 is a payload satellite owned by MSvyaz (CIS) in GEO that was launched on Wed, 01 Aug 1984 UTC via a PROTON-K/DM launch vehicle from the Tyuratam Missile And Space Complex (TTMTR). Payload-class satellites include a variety of spacecraft equipped with specific instruments for various scientific and technological missions. These include communications satellites like Starlink; space stations such as the ISS; scientific satellites like the Hubble; Earth observation satellites from companies like Planet Labs, Umbra, and HawkEye 360; GPS; miniature CubeSats for education and research; and military/defense satellites.

Loading next visibility...
Identifier
15144, 1984-078A
Orbit
GEO
Country
Flag of CISCIS
Related business
Manufacturer
NPO PM
Mission
Non-operational Civil Communications
Bus & Motor
GORIZONT, Unknown motor
Mass
2,120 kg wet, ~2,000 kg dry
Launch date (UTC)
1984-08-01 (41 years ago)
Launch vehicle
PROTON-K/DM
Launch site
Tyuratam Missile And Space Complex (TTMTR)
Object type
Payload
Rocket body
Debris
Shape & HBR
Cyl + 2 Pan, 4.8 m
Radar Cross Section
23.870 m², Large (>1 m²)

Expand to show TLE details & history
Last TLE update: 9 hours ago

TLE from 9 hours ago
0 GORIZONT 10
1 15144U 84078A   25243.23411236 -.00000219  00000-0  00000-0 0  9993
2 15144   9.4282 315.2167 0002568 304.1143  85.2524  1.00175880151670
Epoch: 2025-08-31T05:37Z
TLE epoch observation values (Epoch: 2025-08-31T05:37:07.307Z)
Latitude
4.60469°
Longitude
-79.65433°
Altitude
35,811.64 km
Speed
3.074 km/s
True Right ascension
22h 57m 07s
True Declination
4° 36' 00"
Sunlit
Object was in daylight at epoch
Visualization orbit readout
Latitude
Unknown
Longitude
Unknown
Altitude
Unknown
Speed
Unknown
Apparent Right ascension
Unknown
Apparent Declination
Unknown
Sunlit
N/A
Visualization observer readout
Local Sidereal Time
06:11:55
Azimuth
Unknown
Elevation
Unknown
Doppler factor
Unknown
Orbital elements
Apogee altitude
35,825.365 km
Perigee altitude
35,803.695 km
Semi-major axis
42,192.667 km
Eccentricity
0.00026
Inclination
9.4282°
RAAN
315.2167°
Arg. of periapsis
304.1143°
True anomaly
85.28173°
Mean anomaly
85.2524°
Eccentric anomaly
85.26706°
Mean motion
0.25043 °/min
Orbital period
1,437.52 mins
BSTAR
0
Loading maneuver chart data...
Computing Atmospheric mass density...
Loading historical data...
Loading historical data...
Loading historical data...
Loading historical data...
Loading historical data...
Loading historical data...
Loading historical data...

Documentation

Showing up to 5 results
|